Regional Weather Roundup
Issued by NWS Grand Forks, ND

Home | Current Version | Previous Version | Graphics & Text | Print | Product List | Glossary On
Versions: 1 2 3 4 5 6 7 8 9 10 11 12 13 14 15 16 17 18 19 20 21 22 23 24 25 26 27 28 29 30 31 32 33 34 35 36 37 38 39 40 41 42 43 44 45 46 47 48 49 50
000
ASUS43 KFGF 231710
RWRFGF
PRAIRIE TO PINES  WEATHER ROUNDUP
NATIONAL WEATHER SERVICE EASTERN NORTH DAKOTA/GRAND FORKS ND
1200 PM CDT FRI JUN 23 2017

 **SATELLITE DATA USED TO AUGMENT SKY COVER AT AUTOMATED STATIONS**
 *****  WEATHER ACROSS EASTERN NORTH DAKOTA  *****

CITY           SKY/WX    TMP DP  RH WIND       PRES   REMARKS
GRAND FORKS    LGT RAIN  59  52  77 N14       29.88R
GRAND FRKS AFB CLOUDY    61  48  63 NW16G23   29.89R
DEVILS LAKE    CLOUDY    57  42  57 NW25      29.94R
FARGO          CLOUDY    63  50  62 NW18      29.89R
WAHPETON ARPT  CLOUDY    61  46  59 NW20G28   29.90S
$$

 ***** WEATHER ACROSS CENTRAL AND WESTERN NORTH DAKOTA  *****

CITY           SKY/WX    TMP DP  RH WIND       PRES   REMARKS
BISMARCK       PTSUNNY   61  37  41 NW22G36   30.07R
MINOT          PTSUNNY   61  37  41 W24G36    30.03R
JAMESTOWN      CLOUDY    59  44  57 NW21G29   29.96S
MINOT AFB      NOT AVBL
GARRISON         N/A     59  38  45 NW28G35   30.05S
WILLISTON      FAIR      62  34  35 NW30G38   30.13S
DICKINSON      FAIR      59  31  34 NW22G37   30.12S
HETTINGER      FAIR      60  30  32 NW31G44   30.16R
$$

 *****  OTHER AIRPORT OBSERVATIONS IN OUR AREA  *****

CITY           SKY/WX    TMP DP  RH WIND       PRES   REMARKS
WALHALLA       NOT AVBL
GRAFTON AIRPOR CLOUDY    59  48  67 NW21      29.89S
VALLEY CITY AR CLOUDY    59  48  67 NW18G26   29.96S
CANDO          NOT AVBL
CAVALIER APRT  CLOUDY    57  48  72 NW16      29.87R
GWINNER        CLOUDY    61  46  59 NW23G31   29.95S
SHEYENNE NWR     N/A     63  49  60 NW17      29.95S
ROLLA            N/A     57  39  51 NW26G37   29.94S
 ***** THE ABOVE OBSERVATIONS ARE NON NWS ARE NOT QUALITY
       CONTROLLED AND MAY MIS-REPORT RAIN FOR SNOW...
$$

  *****  WEATHER ACROSS NORTHERN MINNESOTA  *****

CITY           SKY/WX    TMP DP  RH WIND       PRES   REMARKS
FLAG ISLAND    LGT RAIN  57  55  94 NW14      29.73R
WARROAD        PTSUNNY   61  55  82 NW16G24   29.77R
ROSEAU         LGT RAIN  61  54  77 NW14      29.79R
HALLOCK        CLOUDY    59  50  72 NW22G29   29.85R
THF RVR FALLS  CLOUDY    60  50  69 NW20G28   29.84R
BAUDETTE       CLOUDY    65  53  65 NW20      29.73R
WASKISH        CLOUDY    63  52  67 NW12G17   29.75S
CROOKSTON      CLOUDY    59  54  82 NW18G24   29.87R
STEPHEN NDAWN    N/A     61  48  63 NW20        N/A
GREENBUSH NDAW   N/A     59  52  77 NW15        N/A
$$
  *****  WEATHER ACROSS CENTRAL AND WEST MINNESOTA  *****

CITY           SKY/WX    TMP DP  RH WIND       PRES   REMARKS
FOSSTON        CLOUDY    61  52  72 NW17G25   29.84R
BEMIDJI        LGT RAIN  57  55  93 NW17      29.80R
PARK RAPIDS    CLOUDY    64  49  57 NW21G26   29.81R
ELBOW LAKE     CLOUDY    60  55  81 NW20G30   29.89S
WADENA         PTSUNNY   63  54  72 W14G25    29.83R
DETROIT LAKES  CLOUDY    55  54  94 NW20G26   29.88R FOG
MOORHEAD       CLOUDY    61  50  67 NW15      29.90R
FERGUS FALLS   FAIR      61  54  77 NW23      29.87R
MORRIS MN      CLOUDY    64  52  63 NW22G31   29.89R
STAPLES        PTSUNNY   66  48  52 NW13      29.82R
$$
  *****  WEATHER ELSEWHERE ACROSS MINNESOTA  *****

CITY           SKY/WX    TMP DP  RH WIND       PRES   REMARKS
DULUTH         PTSUNNY   64  50  60 NW10G22   29.70R
INTRNTL FALLS  PTSUNNY   67  50  54 NW14G25   29.70R
ELY            FAIR      61  52  72 W15       29.67S
CLOQUET        CLOUDY    63  46  55 W15G24    29.73R
WHEATON        PTSUNNY   64  48  55 W18G29    29.93R
BRAINERD       CLOUDY    64  50  60 NW17G28   29.81R
HIBBING        PTSUNNY   62  47  57 NW15G25   29.71S
ALEXANDRIA     CLOUDY    63  55  75 NW17      29.87S
SAINT CLOUD    PTSUNNY   69  50  50 NW14G26   29.80S
MINNEAPOLIS    PTSUNNY   69  53  56 NW17G24   29.80R
$$

  *****  WEATHER ACROSS SOUTH DAKOTA  *****

CITY           SKY/WX    TMP DP  RH WIND       PRES   REMARKS
SIOUX FALLS    CLOUDY    63  51  65 NW26G36   30.00R
BROOKINGS      CLOUDY    61  49  64 NW22G31   29.99R
WATERTOWN      CLOUDY    59  49  69 NW23G30   29.98R
HURON          CLOUDY    63  48  58 NW28      30.02R
SISSETON         N/A     62  49  62 NW25G31   29.93R
ABERDEEN       CLOUDY    61  45  55 NW25G32   30.01R
MITCHELL       CLOUDY    66  48  52 NW23G29   30.03S
PIERRE         FAIR      64  39  39 NW28G41   30.09S
MOBRIDGE       PTSUNNY   64  35  34 NW24G37   30.06R
RAPID CITY     FAIR      63  37  38 N28G33    30.19F
$$

  *****  SOME WEATHER IN NEARBY STATES *****

CITY           SKY/WX    TMP DP  RH WIND       PRES   REMARKS
GLASGOW MT     FAIR      61  31  32 NW18G29   30.21F
GREAT FALLS MT FAIR      61  33  35 E6        30.31S
CHEYENNE WY    CLOUDY    57  37  47 VRB5      30.30F
SCOTTSBLUFF NE FAIR      66  35  31 NW16      30.23F
OMAHA NE       CLOUDY    68  50  52 NW17G24   30.03R
DES MOINES IA  PTSUNNY   77  51  40 W22       29.87S
DAVENPORT IA   FAIR      76  62  62 NW8       29.78S
CHICAGO IL     PTSUNNY   77  59  53 NW13G20   29.70R
EAU CLAIRE WI  FAIR      70  51  51 NW17G28   29.74S
LA CROSSE WI   FAIR      77  54  44 NW12      29.74R
$$

  *****  SOME NATIONAL WEATHER *****

CITY           SKY/WX    TMP DP  RH WIND       PRES   REMARKS
LA GUARDIA NY  PTSUNNY   84  72  67 SW16G22   29.72F
RALEIGH NC     PTSUNNY   87  74  64 SW18G28   29.96F HX  95
ATLANTA GA     PTSUNNY   85  70  60 SW13G24   30.01F
NEW ORLEANS LA LGT RAIN  86  79  79 S15G23    29.93F HX  99
OKLAHOMA CITY  FAIR      89  66  46 N16G24    29.87R HX  91
ALBUQUERQUE NM FAIR      86  38  18 VRB3      30.10S
SALT LAKE CITY FAIR      78  34  20 NW7       30.17S
LOS ANGELES CA CLOUDY    66  62  87 W6        29.90F
BOISE ID       FAIR      68  36  30 W7        30.20F
SEATTLE WA     FAIR      68  50  52 N7        30.23S
$$

*** WEATHER ACROSS MANITOBA...SASKATCHEWAN AND ONTARIO ***
                ***ONTARIO***

CITY           SKY/WX    TMP DP  RH WIND       PRES   REMARKS
GERALDTON      PTSUNNY   63  48  59 NW7       29.55R
THUNDER BAY    PTSUNNY   61  55  82 NE6       29.57S
SIOUX LOOKOUT  PTSUNNY   64  54  68 NW8       29.62S
TORONTO        CLOUDY    72  70  94 W9        29.57R
BIG TROUT LK   MOSUNNY   63  52  67 W7        29.64R
PICKLE LAKE    PTSUNNY   64  48  55 NE9       29.59R
DRYDEN         PTSUNNY   63  50  63 W10G17    29.64S
KENORA         PTSUNNY   61  50  67 NW13      29.71R
$$
                *** MANITOBA***

CITY           SKY/WX    TMP DP  RH WIND       PRES   REMARKS
BRANDON        PTSUNNY   54  41  62 NW29G36   29.93R
DAUPHIN        CLOUDY    54  41  62 NW16G23   29.91R
ISLAND LAKE    PTSUNNY   55  50  82 N9        29.75R
PILOT MOUND      N/A     55  43  62 NW24G31     N/A
THE PAS        LGT RAIN  50  45  81 NW15G23   29.90R
THOMPSON       CLOUDY    50  41  71 NE12      29.89R
WINNIPEG       LGT RAIN  54  52  94 NW17G24   29.84R
LYNN LAKE      CLOUDY    50  39  66 N9G20     30.00R
CHURCHILL      MOSUNNY   46  39  76 N10       29.97R
GILLAM         CLOUDY    48  41  76 NE18G28   29.89R
$$
                ***SASKATCHEWAN***

CITY           SKY/WX    TMP DP  RH WIND       PRES   REMARKS
ESTEVAN        PTSUNNY   57  39  51 NW29G37   30.07S
KINDERSLEY     MOSUNNY   59  39  47 NW12G21   30.18F
LLOYDMINSTER   PTSUNNY   59  39  47 N9G18     30.15F
PRINCE ALBERT  CLOUDY    50  37  62 NW15G23   30.08F
REGINA         PTSUNNY   54  37  54 NW25G37   30.12R
YORKTON        CLOUDY    52  39  62 NW21G29   30.00R
N. BATTLEFORD  SUNNY     61  39  44 NW15G22   30.16F
LA RONGE       LGT RAIN  48  43  81 N10       30.08S
SASKATOON      PTSUNNY   57  36  44 NW20G30   30.13F
SWIFT CURRENT  MOSUNNY   55  43  62 NW17G28   30.18F
$$
NOTE: THESE ARE AUTOMATED STATIONS WITH LIMITED QUALITY CONTROL
      "FAIR" INDICATES FEW OR NO CLOUDS BELOW 12,000 FEET WITH NO
      SIGNIFICANT WEATHER AND/OR OBSTRUCTIONS TO VISIBILITY.
      SKY/WX - SKY CONDITION AND SIGNIFICANT WEATHER.
      TMP - AIR TEMPERATURE.    DP   - DEWPOINT TEMPERATURE.
      RH  - RELATIVE HUMIDITY.  PRES - PRESSURE.
      HX  - HEAT INDEX.         WCI  - WIND CHILL INDEX.
$




USA.gov is the U.S. government's official web portal to all federal, state and local government web resources and services.